Location: Ciechanow
(52.8812°N, 20.6195°E)
Time: 04:54:38
(UTC+01:00)

ISS - Visible Passes

Search period start: 24 November 2017 00:00
Search period end: 04 December 2017 00:00
Orbit: 402 x 407 km, 51.6° (Epoch: 24 November)

Date Brightness Start Highest point End Pass type
(mag) Time Alt. Az. Time Alt. Az. Time Alt. Az.
28 Nov -0.9 18:17:38 10° SSW 18:17:50 11° SSW 18:17:50 11° SSW visible
29 Nov -1.6 17:26:07 10° S 17:27:45 15° SSE 17:27:45 15° SSE visible
30 Nov -1.7 18:08:43 10° SW 18:10:15 22° SSW 18:10:15 22° SSW visible
01 Dec -2.4 17:16:45 10° SSW 17:19:30 25° SSE 17:20:01 24° SE visible
01 Dec -0.5 18:52:23 10° WSW 18:52:40 12° WSW 18:52:40 12° WSW visible
02 Dec -1.7 16:25:03 10° S 16:27:17 17° SE 16:29:33 10° E visible
02 Dec -2.6 18:00:05 10° WSW 18:02:23 37° SW 18:02:23 37° SW visible
03 Dec -3.0 17:07:51 10° SW 17:10:57 39° SSE 17:12:04 28° ESE visible
03 Dec -0.7 18:43:57 10° W 18:44:42 16° W 18:44:42 16° W visible
